Location: Rioux
(40.7500°S, 175.7500°E)
Time: 10:02:13
(UTC+00:00)

USA 59 Rocket - Pass Details

Date: 12 June 2024
Orbit: 383 x 1740 km, 63.3° (Epoch: 20 July)

Event Time Altitude Azimuth Distance (km) Brightness Sun altitude
Exits shadow 18:47:15 - 218° (SW) 4,324 3.8 -9.5°
Reaches altitude 10° 18:48:56 10° 219° (SW) 3,783 3.5 -9.3°
Maximum altitude 18:58:09 62° 296° (WNW) 1,420 1.7 -7.7°
Drops below altitude 10° 19:04:50 10° 15° (NNE) 2,779 4.0 -6.5°
Sets 19:07:03 0° 18° (NNE) 3,542 4.7 -6.1°
